Vorticity
7 6 5 5 8 0 -5 16 2 14 44 -12 24 -33 -24 37 27 3 2 3 1 7 5 7 15 5 6 -0 8 8 14 9 8 4 6 7 6 6 12 7 5 3 4 4
9 6 10 8 5 11 1 2 15 18 47 10 -20 77 -3 23 43 5 22 18 13 -2 -1 3 11 3 1 3 4 5 4 7 10 9 18 18 14 5 8 10 10 6 6 5
8 7 8 3 4 7 12 7 -2 17 22 42 16 33 11 22 1 40 12 29 21 8 3 0 6 14 1 -1 1 4 3 5 7 2 -6 -5 0 22 5 0 2 4 4 7
9 9 7 4 5 6 7 5 8 -6 40 3 34 17 12 12 17 7 30 12 10 -6 12 -10 -10 6 6 -7 0 -0 3 3 1 -0 12 12 9 11 20 5 0 4 3 5
9 7 5 4 13 10 7 10 -0 6 5 24 9 -7 -9 2 8 15 24 -3 4 39 30 13 18 21 -5 12 -0 1 2 -1 11 20 16 14 17 12 15 15 8 16 6 3
6 7 8 5 12 12 7 2 -0 0 7 5 3 34 8 19 -7 1 12 2 18 7 10 35 23 0 11 25 8 11 11 8 15 13 9 9 8 11 7 5 13 17 12 7
18 22 11 11 7 11 9 16 11 13 8 8 7 5 9 16 -20 14 7 -5 25 5 1 5 -0 5 6 3 6 5 3 6 8 7 11 1 7 10 8 4 -1 2 6 7
16 18 32 43 35 4 10 8 2 4 10 1 5 6 -7 -2 8 6 -6 4 -8 2 12 8 3 3 7 4 7 7 7 8 8 8 10 12 13 12 10 9 8 11 9 7
-0 5 12 30 27 16 24 6 -2 7 4 -5 -8 -5 7 15 18 20 13 10 11 7 5 6 3 6 5 3 4 6 11 13 14 14 13 10 12 14 13 11 11 14 14 13
47 2 13 31 37 20 20 20 16 3 0 1 8 12 5 -3 17 -17 13 8 5 13 13 14 14 18 23 24 17 15 16 12 9 6 6 6 6 7 7 7 7 6 6 8
14 6 4 16 8 11 14 21 16 8 12 13 14 11 -3 -5 -9 7 9 17 9 6 -4 16 20 18 15 14 13 12 9 8 6 7 8 7 6 6 6 6 8 8 8 6
-20 28 39 -2 9 9 20 21 2 -14 13 12 18 -2 -5 12 29 7 25 -4 6 10 13 8 11 10 8 7 5 5 6 6 5 5 5 6 5 7 4 8 4 5 12 14
18 -4 -5 21 25 16 4 -8 6 25 28 16 15 8 3 17 15 9 20 15 8 11 11 10 7 7 6 7 7 6 7 7 6 6 5 5 6 5 5 6 4 8 8 18
11 7 6 11 1 -3 -10 30 16 23 4 11 7 18 19 6 2 -0 8 10 15 16 14 9 7 8 8 7 7 8 9 9 8 8 8 7 7 6 9 6 5 8 10 14
-1 5 8 6 6 7 8 10 6 14 12 5 2 8 14 10 3 13 -0 6 -3 -4 6 2 9 12 11 9 8 7 6 6 6 6 7 6 8 7 6 5 8 12 15 18
4 7 3 5 5 5 4 4 4 4 6 9 9 12 8 8 9 9 10 8 10 18 6 10 9 9 8 9 7 6 8 8 8 8 7 7 6 6 13 17 19 18 18 17
11 3 1 2 1 5 7 4 3 5 6 4 2 3 6 6 6 8 8 8 9 11 9 8 9 9 10 11 9 10 10 11 13 16 18 21 22 22 19 18 15 17 15 13
11 8 7 10 10 7 6 7 7 7 7 6 7 9 9 10 10 12 12 12 14 14 13 13 15 17 17 17 18 22 24 23 22 22 21 20 21 19 15 14 17 15 10 11
5 9 14 15 17 19 19 16 13 11 8 7 4 4 6 8 8 9 11 11 10 13 16 15 12 9 12 10 13 12 12 12 6 16 15 12 9 10 7 13 12 13 11 9
16 18 15 14 15 16 16 16 18 19 19 20 22 21 17 19 12 10 11 12 6 1 5 10 19 20 14 16 13 6 6 16 12 12 9 8 13 15 15 14 13 13 11 11
4 3 6 12 14 15 13 11 10 10 8 6 5 7 8 11 5 8 11 1 -1 1 15 12 7 11 15 16 17 20 17 14 9 10 11 12 13 13 13 13 12 12 12 12
14 13 -0 9 12 6 9 16 22 24 24 23 20 18 16 14 13 13 12 13 16 21 17 11 10 11 8 6 6 7 8 9 10 10 10 10 11 10 10 10 9 8 8 6
6 9 13 17 9 6 8 10 11 10 9 8 7 6 6 7 9 12 14 13 12 11 12 13 12 12 12 12 11 11 12 12 12 12 11 9 6 5 6 6 6 7 6 7
9 5 4 4 4 4 6 9 7 6 5 6 7 7 10 13 13 12 11 10 9 9 10 10 10 10 10 10 10 9 8 7 6 6 6 5 5 5 5 6 8 11 12 14
5 6 7 8 10 9 8 9 10 12 13 14 14 14 13 13 12 11 12 13 13 12 11 10 10 11 12 13 12 12 11 10 9 10 11 14 17 21 22 22 26 26 24 22
9 10 9 10 13 14 14 13 15 16 17 17 17 17 16 15 15 15 15 15 15 15 14 15 16 16 16 17 17 17 17 20 21 22 22 22 23 24 23 20 19 17 16 13
10 13 13 12 14 17 21 23 25 26 26 26 25 25 24 24 24 24 24 25 26 25 25 25 23 23 23 21 20 21 22 21 20 20 21 20 19 18 14 13 11 9 10 10
Height
5583 5585 5587 5589 5590 5589 5591 5591 5590 5590 5587 5591 5592 5598 5599 5600 5603 5610 5616 5622 5627 5632 5636 5641 5645 5647 5650 5653 5655 5657 5659 5660 5661 5663 5666 5667 5670 5671 5672 5673 5674 5674 5674 5676
5578 5579 5581 5582 5585 5583 5586 5586 5586 5584 5582 5587 5590 5594 5597 5601 5598 5605 5609 5614 5620 5624 5628 5632 5637 5639 5642 5646 5648 5649 5652 5654 5656 5656 5657 5658 5658 5662 5664 5664 5666 5665 5667 5667
5571 5573 5574 5578 5578 5577 5580 5581 5582 5582 5581 5583 5588 5592 5596 5597 5597 5600 5604 5607 5611 5615 5621 5627 5630 5633 5635 5638 5641 5644 5646 5648 5649 5650 5651 5651 5652 5654 5653 5654 5654 5657 5657 5657
5564 5566 5568 5571 5571 5570 5574 5577 5578 5580 5580 5581 5585 5589 5592 5593 5595 5597 5599 5602 5606 5606 5612 5618 5622 5625 5628 5630 5633 5635 5637 5638 5639 5640 5642 5644 5644 5644 5645 5645 5645 5645 5645 5645
5556 5559 5563 5566 5565 5566 5568 5573 5573 5576 5578 5579 5580 5585 5583 5584 5588 5589 5591 5593 5596 5597 5600 5605 5612 5614 5617 5621 5623 5626 5629 5630 5631 5631 5631 5632 5634 5634 5635 5635 5634 5634 5635 5634
5551 5552 5554 5560 5559 5559 5561 5566 5568 5571 5574 5576 5576 5577 5577 5580 5584 5586 5587 5588 5590 5592 5592 5594 5600 5603 5605 5608 5610 5613 5617 5620 5621 5621 5621 5622 5622 5622 5623 5623 5622 5621 5621 5620
5542 5541 5545 5550 5552 5552 5555 5561 5560 5566 5569 5571 5572 5573 5574 5576 5578 5582 5582 5584 5583 5585 5585 5587 5589 5592 5595 5598 5601 5603 5605 5605 5606 5608 5610 5610 5610 5610 5609 5609 5609 5609 5608 5607
5536 5535 5536 5540 5542 5545 5548 5551 5554 5559 5562 5565 5567 5569 5570 5572 5574 5575 5576 5576 5578 5580 5581 5582 5583 5584 5587 5589 5591 5592 5592 5593 5594 5594 5594 5595 5596 5596 5596 5595 5594 5593 5592 5591
5533 5531 5532 5533 5532 5534 5540 5545 5548 5553 5556 5559 5561 5563 5565 5566 5567 5569 5570 5570 5570 5572 5573 5574 5576 5577 5578 5580 5581 5583 5582 5582 5583 5583 5582 5583 5583 5583 5582 5581 5580 5578 5576 5575
5525 5528 5527 5525 5527 5529 5534 5538 5542 5545 5547 5550 5553 5555 5558 5558 5559 5561 5563 5564 5565 5566 5567 5568 5569 5569 5569 5569 5569 5570 5571 5572 5572 5572 5571 5571 5571 5570 5568 5566 5565 5563 5561 5559
5523 5524 5525 5525 5527 5528 5530 5532 5535 5538 5540 5541 5544 5547 5549 5550 5549 5551 5552 5553 5555 5556 5556 5557 5557 5558 5558 5559 5559 5560 5560 5560 5560 5560 5559 5559 5557 5555 5553 5551 5549 5546 5543 5541
5521 5521 5521 5523 5525 5526 5528 5530 5531 5532 5534 5535 5536 5538 5539 5539 5540 5542 5542 5543 5544 5545 5545 5546 5546 5547 5547 5547 5548 5548 5548 5549 5548 5548 5547 5545 5543 5541 5539 5536 5533 5530 5527 5523
5518 5518 5518 5518 5520 5523 5524 5525 5524 5524 5526 5527 5528 5529 5530 5532 5532 5533 5534 5534 5535 5536 5536 5537 5536 5537 5537 5536 5536 5536 5536 5535 5534 5533 5532 5530 5528 5526 5524 5521 5519 5517 5513 5509
5515 5514 5515 5515 5515 5516 5517 5519 5521 5520 5520 5520 5521 5522 5522 5522 5523 5525 5525 5525 5525 5525 5525 5525 5525 5525 5524 5523 5523 5522 5521 5520 5519 5518 5516 5514 5513 5511 5509 5506 5503 5499 5496 5492
5510 5510 5510 5509 5510 5512 5512 5513 5514 5513 5513 5514 5514 5515 5515 5515 5515 5514 5514 5514 5514 5514 5513 5513 5512 5512 5511 5511 5509 5508 5507 5505 5504 5502 5500 5498 5496 5494 5491 5488 5485 5482 5479 5476
5504 5504 5504 5503 5503 5504 5505 5506 5506 5505 5506 5507 5507 5508 5507 5506 5506 5505 5505 5504 5502 5502 5501 5500 5499 5498 5497 5496 5494 5492 5491 5488 5486 5484 5482 5479 5477 5474 5472 5470 5467 5464 5461 5458
5496 5498 5498 5498 5496 5496 5497 5497 5496 5496 5497 5497 5497 5497 5496 5494 5494 5493 5492 5491 5489 5487 5486 5484 5482 5480 5479 5477 5476 5474 5472 5469 5467 5465 5462 5460 5458 5455 5453 5451 5449 5446 5444 5441
5492 5492 5491 5490 5490 5489 5488 5487 5486 5485 5485 5484 5483 5482 5481 5481 5480 5478 5477 5475 5473 5471 5469 5467 5465 5463 5462 5460 5458 5456 5453 5451 5448 5446 5444 5442 5440 5438 5436 5434 5431 5429 5427 5425
5488 5486 5485 5484 5483 5481 5479 5478 5476 5474 5473 5471 5470 5469 5468 5466 5465 5463 5461 5459 5457 5455 5453 5451 5449 5447 5445 5443 5441 5439 5437 5435 5433 5431 5429 5426 5424 5421 5420 5418 5416 5414 5411 5409
5479 5477 5475 5473 5471 5469 5468 5466 5464 5462 5460 5458 5456 5455 5453 5451 5450 5448 5446 5444 5443 5441 5438 5436 5432 5430 5428 5427 5425 5423 5421 5419 5417 5415 5413 5411 5408 5405 5403 5401 5399 5397 5395 5392
5470 5468 5466 5463 5460 5458 5455 5453 5450 5448 5446 5444 5442 5440 5438 5436 5434 5432 5431 5429 5427 5425 5422 5420 5417 5415 5412 5411 5409 5407 5404 5402 5401 5399 5396 5394 5392 5390 5387 5385 5383 5382 5380 5377
5461 5458 5456 5452 5449 5446 5442 5439 5436 5433 5430 5428 5426 5423 5421 5419 5417 5415 5413 5410 5408 5406 5404 5402 5401 5399 5397 5395 5393 5391 5389 5387 5385 5383 5380 5378 5376 5374 5372 5370 5368 5366 5363 5361
5451 5448 5444 5441 5438 5434 5430 5427 5423 5420 5417 5414 5411 5408 5405 5402 5399 5397 5395 5393 5391 5389 5387 5385 5383 5381 5380 5378 5376 5374 5372 5371 5369 5367 5365 5364 5362 5359 5356 5354 5352 5349 5346 5343
5440 5436 5432 5428 5423 5420 5416 5412 5408 5404 5401 5397 5394 5391 5388 5385 5382 5380 5377 5375 5373 5371 5369 5367 5366 5364 5362 5361 5359 5357 5356 5354 5352 5351 5349 5347 5345 5343 5340 5338 5335 5332 5329 5325
5428 5423 5418 5413 5409 5404 5399 5394 5390 5386 5382 5378 5374 5371 5368 5365 5363 5360 5359 5357 5355 5353 5351 5349 5348 5346 5345 5343 5342 5339 5337 5335 5334 5332 5330 5329 5327 5325 5321 5318 5315 5312 5309 5306
5414 5408 5403 5397 5392 5386 5381 5375 5370 5366 5361 5358 5354 5351 5349 5346 5343 5340 5338 5336 5335 5333 5331 5330 5328 5327 5325 5324 5322 5320 5319 5317 5315 5313 5311 5310 5308 5306 5303 5301 5298 5296 5293 5291
5399 5392 5385 5379 5372 5366 5360 5355 5350 5345 5341 5337 5334 5331 5328 5326 5324 5322 5320 5318 5316 5315 5314 5312 5310 5309 5307 5305 5304 5303 5302 5301 5299 5297 5296 5294 5293 5291 5290 5288 5286 5283 5281 5279